Location: Cassano d�Adda
(45.5333°N, 9.5167°E)
Time: 22:54:57
(UTC+00:00)

Cosmos 1900 - Pass Details

Date: 08 December 2019
Orbit: 692 x 730 km, 66.1° (Epoch: 17 January)

Event Time Altitude Azimuth Distance (km) Brightness Sun altitude
Rises 17:31:29 0° 324° (NW) 3,081 7.9 -19.0°
Reaches altitude 10° 17:33:50 10° 323° (NW) 2,157 7.1 -19.4°
Maximum altitude 17:38:43 74° 239° (WSW) 722 4.4 -20.2°
Drops below altitude 10° 17:43:34 10° 155° (SSE) 2,140 6.7 -21.1°
Enters shadow 17:45:24 - 154° (SSE) 2,867 7.3 -21.4°
